Flag for Andorra Weather past 2 weeks in Andorra La Vella, Andorra

Now
72 °F

Passing clouds.


Feels Like: 75 °F
Forecast: 34 / 56 °F
Wind: 17 mph from Northwest

Location: Carcassonne Airport

Current Time: Oct 21, 2014 at 1:25:02 PM

Latest Report: Oct 21, 2014 at 1:00 PM


Visibility: N/A

Pressure: 30.15 "Hg

Humidity: 65%

Dew point: 59 °F

Location of Andorra La VellaLocation

Historic Weather in Andorra La Vella — Graph

°F

Andorra La Vella temperature yesterday

Maximum temperature yesterday: 75 °F (at 2:00 PM)
Minimum temperature yesterday: 61 °F (at 11:00 PM)
Average temperature yesterday: 69 °F

Past Weeks' High & Low Weather Summary

 TemperatureHumidityPressure
High81 °F (Oct 12, 2:30 PM)100% (Oct 7, 7:00 AM)30.27 "Hg (Oct 7, 7:00 AM)
Low52 °F (Oct 13, 8:00 AM)34% (Oct 13, 4:00 PM)29.62 "Hg (Oct 12, 3:30 PM)
Average66 °F81%29.91 "Hg
* Reported Oct 6 12:00 Noon — Oct 21 12:30 PM, Andorra La Vella, Weather by CustomWeather, © 2014

Note: Actual official high and low records may vary slightly from our data, if they occured in-between our weather recording intervals... More about our weather records

Advertising

Andorra La Vella weather history for previous 24 hours

 ConditionsComfort  
Time TempWeatherWind HumidityBarometerVisibility
12:30 PM
Oct 21
70 °FPassing clouds.21 mph69%30.15 "HgN/A
12:00 PM70 °FClear.23 mph69%30.15 "HgN/A
11:30 AM70 °FScattered clouds.17 mph69%30.15 "HgN/A
11:00 AM68 °FPartly sunny.14 mph73%30.15 "HgN/A
10:30 AM66 °FOvercast.13 mph78%30.18 "HgN/A
10:00 AM64 °FMostly cloudy.13 mph83%30.15 "HgN/A
9:30 AM63 °FOvercast.13 mph88%30.15 "HgN/A
9:00 AM63 °FLow clouds.10 mph88%30.15 "Hg6 mi
8:30 AM61 °FLow clouds.15 mph94%30.12 "Hg4 mi
8:00 AM61 °FPassing clouds.15 mph94%30.12 "HgN/A
7:30 AM63 °FPassing clouds.13 mph83%30.12 "HgN/A
7:00 AM63 °FPassing clouds.13 mph83%30.12 "HgN/A
6:30 AM63 °FPassing clouds.14 mph83%30.09 "HgN/A
6:00 AM63 °FPassing clouds.13 mph83%30.09 "HgN/A
5:30 AM63 °FClear.12 mph77%30.09 "HgN/A
5:00 AM64 °FClear.10 mph78%30.09 "HgN/A
4:30 AM64 °FClear.12 mph78%30.09 "HgN/A
4:00 AM64 °FClear.12 mph78%30.09 "HgN/A
3:30 AM63 °FClear.8 mph88%30.09 "HgN/A
3:00 AM61 °FClear.6 mph100%30.12 "HgN/A
2:30 AM61 °FClear.5 mph100%30.12 "Hg4 mi
2:00 AM59 °FFog.1 mph100%30.12 "Hg2 mi
1:30 AM61 °FFog.3 mph100%30.12 "Hg2 mi
1:00 AM61 °FFog.No wind94%30.12 "Hg1 mi
12:30 AM61 °FFog.1 mph94%30.12 "Hg2 mi
12:00 AM61 °FFog.No wind100%30.12 "Hg2 mi
11:30 PM
Oct 20
61 °FFog.No wind94%30.12 "Hg2 mi
11:00 PM61 °FFog.No wind100%30.12 "Hg2 mi
10:30 PM63 °FFog.No wind94%30.12 "Hg2 mi
10:00 PM63 °FClear.2 mph94%30.12 "Hg4 mi
9:30 PM64 °FFog.No wind94%30.09 "Hg3 mi
9:00 PM64 °FFog.2 mph94%30.09 "Hg2 mi
8:30 PM66 °FClear.No wind88%30.09 "Hg4 mi
8:00 PM68 °FClear.3 mph83%30.09 "HgN/A
7:30 PM68 °FClear.3 mph83%30.09 "HgN/A
7:00 PM70 °FClear.6 mph78%30.07 "HgN/A
6:30 PM72 °FClear.8 mph73%30.07 "HgN/A
6:00 PM73 °FClear.9 mph74%30.07 "HgN/A
5:30 PM75 °FClear.10 mph69%30.09 "HgN/A
5:00 PM75 °FClear.10 mph69%30.09 "HgN/A
4:30 PM75 °FClear.10 mph69%30.09 "HgN/A
4:00 PM75 °FClear.10 mph69%30.09 "HgN/A
3:30 PM75 °FClear.12 mph69%30.09 "Hg5 mi
3:00 PM75 °FClear.12 mph69%30.12 "HgN/A
2:30 PM75 °FClear.12 mph69%30.12 "HgN/A
2:00 PM75 °FClear.13 mph69%30.12 "HgN/A
1:30 PM73 °FPassing clouds.13 mph74%30.15 "HgN/A
1:00 PM73 °FScattered clouds.13 mph74%30.15 "HgN/A
Weather by CustomWeather, © 2014

See weather overviewHow to use our weather pages